Oregon State Current Weather Observations

 
 ASUS46 KPQR 172110
 RWROR 
 
 OREGON REGIONAL WEATHER ROUNDUP
 NATIONAL WEATHER SERVICE PORTLAND OR
 100 PM PST SAT FEB 17 2018
 
 NOTE: "FAIR" INDICATES FEW OR NO CLOUDS BELOW 12,000 FEET WITH
 NO SIGNIFICANT WEATHER AND/OR OBSTRUCTIONS TO VISIBILITY.
 
 ORZ001>013-172200-
 NORTHWEST OREGON
 
   
 CITY           SKY/WX    TMP DP  RH WIND       PRES   REMARKS
 ASTORIA        CLOUDY    47  44  90 W15G28    29.82F                  
 TILLAMOOK      LGT RAIN  46  46 100 SW16G25   29.93F                  
 NEWPORT        DRIZZLE   46  46 100 W16G30    30.03F                  
 PORTLAND       CLOUDY    54  45  71 W14G23    29.82S                  
 VANCOUVER WA   CLOUDY    53  45  74 SW9G20    29.81F                  
 SCAPPOOSE      LGT RAIN  51  45  79 SW10      29.79F                  
 HILLSBORO      CLOUDY    52  42  69 SW21G33   29.82F                  
 AURORA         CLOUDY    52  46  80 W21G32    29.87F                  
 MCMINNVILLE    CLOUDY    51  45  79 SW16G30   29.86F                  
 SALEM          CLOUDY    52  47  83 SW15G24   29.89F                  
 CORVALLIS      LGT RAIN  52  48  86 S16G22    29.94S                  
 EUGENE         LGT RAIN  52  48  86 SW20      29.97F                  
 
ORZ021-028-172200- SOUTHWEST OREGON CITY SKY/WX TMP DP RH WIND PRES REMARKS NORTH BEND CLOUDY 51 49 92 SW16G22 30.08F ROSEBURG PTSUNNY 58 45 62 SW10G22 30.05F SEXTON SUMMIT FOG 39 39 100 S13 30.06F VSB<1/4 WCI 31 GRANTS PASS CLOUDY 52 39 62 CALM 30.12F MEDFORD PTSUNNY 50 36 58 CALM 30.10F
ORZ014>016-041-172200- COLUMBIA GORGE CITY SKY/WX TMP DP RH WIND PRES REMARKS TROUTDALE LGT RAIN 53 48 83 SW16G31 29.81F HOOD RIVER LGT RAIN 50 45 81 W8 29.68F THE DALLES CLOUDY 61 39 44 W30G54 29.61F
ORZ029>031-041-044-049-050-061>064-502-503-505>511-172200- EASTERN OREGON CITY SKY/WX TMP DP RH WIND PRES REMARKS MADRAS NOT AVBL REDMOND CLOUDY 53 38 56 S12G23 29.77F BEND MOSUNNY 52 39 62 SW21G36 29.80F PRINEVILLE CLOUDY 52 37 58 SW22G33 29.79F KLAMATH FALLS CLOUDY 46 34 62 VRB3 30.07F LAKEVIEW CLOUDY 50 34 54 SW16 30.03F HERMISTON LGT RAIN 49 44 83 W9 29.62F PENDLETON LGT RAIN 50 39 66 W13G20 29.63F JOHN DAY CLOUDY 47 35 64 S16G32 29.78F MEACHAM CLOUDY 40 35 83 VRB5 29.66F LA GRANDE CLOUDY 40 32 73 S18G26 29.73F WCI 31 BAKER CITY CLOUDY 45 30 55 SE24G35 29.76F BURNS CLOUDY 44 32 62 SW9 29.88F ROME N/A 56 29 35 SW26G37 29.89F ONTARIO CLOUDY 49 32 52 SE12 29.89F

Data from: http://www.wrh.noaa.gov/sew/get.php?pil=RWR&sid=OR&version=0&format=printer

Current Observations

Current Weather Conditions by Major Highway
Washington State Current Weather Observations   …  Oregon State Current Weather Observation



48 Hour Forecast


Seattle  …  Vancouver  …  Portland
————————————————————————————————————————
Bend  …  Spokane  …  Richland  …  Pendleton  …  Blue Mountains I-84  …  Yakima
————————————————————————————————————————
Goldendale, Washington Higher Elevations  …  Dallesport Airport - Goldendale  …  Bingen - White Salmon - Hood River  …  Index





Top of Page